Regional Weather Roundup
Issued by NWS Boston, MA

Current Version | Previous Version | Text Only | Print | Product List | Glossary Off
Versions: 1 2 3 4 5 6 7 8 9 10 11 12 13 14 15 16 17 18 19 20 21 22 23 24 25 26 27 28 29 30 31 32 33 34 35 36 37 38 39 40 41 42 43 44 45 46 47 48 49 50
000 ASUS41 KBOX 211810 RWRBOX REGIONAL WEATHER ROUNDUP NATIONAL WEATHER SERVICE BOSTON/NORTON MA 200 PM EDT TUE AUG 21 2018 NOTE: "FAIR" INDICATES FEW OR NO CLOUDS BELOW 12,000 FEET WITH NO SIGNIFICANT WEATHER AND/OR OBSTRUCTIONS TO VISIBILITY. MAZALL-211900- EASTERN MASSACHUSETTS CITY SKY/WX TMP DP RH WIND PRES REMARKS BOSTON CLOUDY 70 63 78 E13 30.09F 6HR MIN TEMP: 67; 6HR MAX TEMP: 72; BEVERLY CLOUDY 70 62 76 NE8 30.09F LAWRENCE CLOUDY 73 60 63 VRB5 30.11F BEDFORD CLOUDY 71 60 68 SE10 30.08F BLUE HILL N/A 67 63 87 E8 30.09F NORWOOD CLOUDY 71 64 78 E6 30.08F MARSHFIELD CLOUDY 70 64 83 NE8 30.09F PLYMOUTH CLOUDY 71 63 75 NE8 30.09F TAUNTON CLOUDY 73 62 68 VRB5 30.08F NEW BEDFORD CLOUDY 71 65 81 NE7 30.07F $$ MAZALL-211900- CAPE COD AND THE ISLANDS CITY SKY/WX TMP DP RH WIND PRES REMARKS FALMOUTH CLOUDY 70 63 78 NE10 30.09F HYANNIS CLOUDY 71 64 78 N10 30.07S CHATHAM CLOUDY 70 63 78 NE7 30.09S PROVINCETOWN CLOUDY 72 63 73 E10 30.10S NANTUCKET CLOUDY 68 65 90 NE8 30.07S MARTHAS VNYRD CLOUDY 71 67 87 E10 30.07F $$ MAZALL-211900- CENTRAL AND WESTERN MASSACHUSETTS CITY SKY/WX TMP DP RH WIND PRES REMARKS WORCESTER CLOUDY 70 61 73 E6 30.10F 6HR MIN TEMP: 61; 6HR MAX TEMP: 70; FITCHBURG CLOUDY 70 60 70 SE6 30.09F ORANGE PTSUNNY 75 58 55 SE5 30.09F SPRINGFIELD CLOUDY 75 60 58 S5 30.05F WESTFIELD CLOUDY 74 61 63 VRB5 30.06F NORTH ADAMS FAIR 74 60 61 SE9 30.04F PITTSFIELD FAIR 73 58 59 SE8 30.06F $$ RIZALL-211900- RHODE ISLAND CITY SKY/WX TMP DP RH WIND PRES REMARKS PROVIDENCE CLOUDY 74 61 63 VRB6 30.08F 6HR MIN TEMP: 67; 6HR MAX TEMP: 75; NEWPORT CLOUDY 72 65 78 E7 30.08F BLOCK ISLAND CLOUDY 69 67 93 E8 30.09F SMITHFIELD CLOUDY 73 63 70 E6 30.09F WESTERLY NOT AVBL $$ CTZALL-211900- CONNECTICUT CITY SKY/WX TMP DP RH WIND PRES REMARKS BRADLEY INTL PTSUNNY 76 61 59 VRB7 30.06F 6HR MIN TEMP: 61; 6HR MAX TEMP: 76; HARTFORD FAIR 76 62 62 CALM 30.05F BRIDGEPORT FAIR 74 64 71 E9 30.07S DANBURY FAIR 75 62 64 SE13 30.07F GROTON FAIR 74 66 76 SE12 30.06F NEW HAVEN SUNNY 75 64 69 E8 30.07F CHESTER PTSUNNY 77 63 61 E6 30.08S MERIDEN FAIR 77 63 61 CALM 30.06F WILLIMANTIC FAIR 76 63 64 CALM 30.06F OXFORD FAIR 75 63 66 S7 30.08F $$ MEZ002-015-021-024-NHZ003-005-008-011-012-014-VTZ005-008-211900- NORTHERN NEW ENGLAND CITY SKY/WX TMP DP RH WIND PRES REMARKS PORTLAND ME FAIR 71 59 65 S10 30.11S 6HR MIN TEMP: 60; 6HR MAX TEMP: 72; BANGOR ME FAIR 76 57 51 SE9 30.09F CONCORD NH CLOUDY 72 60 66 S8 30.09F MANCHESTER NH CLOUDY 72 59 63 SE9 30.07F NASHUA NH CLOUDY 73 63 68 SE6 30.09F PORTSMOUTH NH PTSUNNY 71 58 64 SE12 30.09F JAFFREY NH CLOUDY 71 59 65 VRB7 30.11F KEENE NH CLOUDY N/A N/A N/A S8 30.08F BURLINGTON VT PTSUNNY 80 57 45 S13 29.98F MT. WASHINGTON FOG 46 46 100 S14 N/A VSB 1/8 $$ NYZ052-076-211900- EASTERN NEW YORK CITY SKY/WX TMP DP RH WIND PRES REMARKS ALBANY PTSUNNY 78 60 53 S13 30.02F 6HR MIN TEMP: 68; 6HR MAX TEMP: 79; NEW YORK CITY PTSUNNY 79 59 50 VRB5 30.03F 6HR MIN TEMP: 70; 6HR MAX TEMP: 79; $$ ANZALL-211900- MARINE OBSERVATIONS STATION/POSITION TIME TEMP WIND PRES VSBY WAVE AIR SEA DIR/SP/G HT/PER (UTC) (F) (DEG/KT/KT) (MB) (MI) (FT/S) BOSTON BUOY 1750 67 67 50/ 8/ 10 1018.7F 4/ 9 BUZZARDS BAY 1700 69 60/ 8/ 9 1019.5F NANTUCKET SOUND 1750 68 74 60/ 8/ 12 1018.5F 1/ 5 MASS BAY-STELLWA 1704 67 68 50/ 8/ 10 1018.2S 1 7/8 4/ 8 ISLE OF SHOALS 1800 65 100/ 8/ 9 1018.8F S OF BLOCK IS 1743 70 N/A 3/ 8 $$ ......................KEY......................... SKY/WX - SKY CONDITION/PRESENT WEATHER TMP - TEMPERATURE IN FAHRENHEIT DWPT - DEWPOINT IN FAHRENHEIT RH - RELATIVE HUMIDITY IN PERCENT WIND - DIRECTION AND SPEED IN MPH PRES - MEAN SEA LEVEL PRESSURE IN INCHES OF HG WCI - WIND CHILL INDEX VSB - VISIBILITY IN MILES HX - HEAT INDEX TC - TEMPERATURE IN CELSIUS VRB - VARIABLE WIND DIRECTION N/A - NOT AVAILABLE

USA.gov is the U.S. government's official web portal to all federal, state and local government web resources and services.